Location: Newark
(43.4306°N, 0.3089°E)
Time: 14:38:40
(UTC+00:00)

Vanguard 3 - Pass Details

Date: 03 September 2019
Orbit: 508 x 3263 km, 33.4° (Epoch: 21 September)

Event Time Altitude Azimuth Distance (km) Brightness Sun altitude
Rises 10:13:33 0° 198° (SSW) 7,207 12.3 47.4°
Reaches altitude 10° 10:20:25 10° 185° (S) 6,163 12.2 48.2°
Maximum altitude 10:32:40 21° 145° (SE) 4,838 12.4 49.5°
Drops below altitude 10° 10:42:45 10° 104° (ESE) 5,025 11.7 50.5°
Sets 10:47:24 0° 90° (E) 5,598 11.7 50.9°
